DW6267 Weather Reports


Display with metric or nautical units.
time (UTC)temp
F
wind
direction
speed
MPH
gust
MPH
rain 1hr
in
rain 24hr
in
rain mn
in
humidity
%
barometer
mb
20260904110345 44 73 0.0 0.0 0.00 0.00 0.00 100 1008.4
20260904100344 44 73 0.0 0.0 0.00 0.00 0.00 100 1007.7
20260904090352 44 73 0.0 0.0 0.00 0.00 0.00 100 1008.2
20260904080336 45 73 0.0 0.0 0.00 0.00 0.00 100 1008.5
20260904070352 45 73 0.0 0.0 0.00 0.00 0.00 100 1008.4
20260904060338 46 73 0.0 0.0 0.00 0.00 0.06 100 1008.1
20260904050345 47 73 0.0 0.0 0.00 0.00 0.06 100 1007.6
20260904040343 49 73 0.0 0.0 0.00 0.00 0.05 96 1008.6
20260904030343 51 77 0.0 0.0 0.00 0.00 0.01 76 1007.2
20260904020355 55 75 0.0 0.0 0.00 0.00 0.01 63 1006.9
20260904010336 57 306 1.0 0.0 0.00 0.00 0.01 61 1005.8
20260904000342 57 287 0.0 0.0 0.00 0.00 0.01 69 1006.3
20260903230346 53 279 0.0 0.0 0.00 0.00 0.01 84 1006.2
20260903220337 62 279 0.0 0.0 0.00 0.00 0.01 42 1005.5
20260903210356 58 20 0.0 0.0 0.00 0.00 0.01 56 1006.9
20260903200341 56 144 0.0 0.0 0.00 0.00 0.01 75 1006.3
20260903190405 56 144 0.0 0.0 0.00 0.00 0.01 61 1006.5
20260903180347 52 144 0.0 0.0 0.00 0.00 0.01 74 1007.2
20260903170404 50 246 0.0 0.0 0.00 0.00 0.01 81 1006.2
20260903160343 43 246 0.0 0.0 0.00 0.00 0.01 100 1007.5
20260903150338 39 246 0.0 0.0 0.00 0.00 0.01 100 1007.0
20260903140340 38 246 0.0 0.0 0.00 0.00 0.01 100 1007.9
20260903130335 40 246 0.0 0.0 0.00 0.00 0.01 100 1007.0
20260903120349 43 246 0.0 0.0 0.00 0.00 0.00 100 1006.6